Theta_e
314 315 317 320 324 325 322 322 320 323 325 322 329 326 327 324 326 326 326 332 327 328 326 327 331 327 323 320 316 313 313 331 328 325 316 312 319 328 325 330 327 319 316 313 315 320 321 324 325
315 316 317 323 326 324 322 320 321 322 322 321 325 323 325 327 328 329 333 330 326 330 326 328 329 327 323 320 316 314 312 327 328 328 316 311 315 324 327 328 324 317 315 314 312 311 312 315 317
315 316 322 324 325 323 322 320 321 321 320 321 324 324 325 327 329 334 334 329 328 332 328 330 328 327 324 321 319 316 314 320 332 328 320 311 311 323 321 327 326 320 325 318 315 312 311 311 311
314 317 318 325 324 322 320 320 319 323 319 318 323 324 324 323 333 333 333 330 331 331 332 329 328 327 325 323 320 318 315 325 332 329 320 312 310 312 311 326 326 326 322 323 315 319 315 318 315
315 316 322 323 321 319 317 318 320 323 320 320 322 322 325 323 328 330 332 331 333 331 331 328 328 328 327 324 322 320 317 323 332 330 320 312 310 310 309 321 326 326 325 314 320 325 323 324 322
319 318 323 323 321 318 318 318 319 319 319 320 321 322 326 323 327 330 333 333 333 331 330 327 328 328 328 326 324 322 319 324 331 327 318 313 310 309 309 313 326 315 314 311 314 321 323 324 321
320 321 323 322 320 320 320 317 319 319 319 320 321 321 324 326 327 328 333 335 334 332 330 326 329 329 328 327 325 323 321 325 328 323 319 315 312 310 308 309 313 314 313 314 315 316 318 318 319
316 319 320 320 320 320 318 317 316 317 318 317 322 319 321 328 326 329 334 335 335 335 330 327 329 330 329 328 326 325 323 322 322 321 319 316 313 311 309 309 311 313 313 314 315 315 318 319 320
316 320 321 320 319 319 315 318 315 315 316 318 321 319 319 323 324 329 333 334 335 335 332 328 330 330 330 329 328 327 325 324 323 322 318 317 315 313 311 312 314 314 314 314 314 314 316 319 320
318 319 319 318 318 318 316 318 317 317 317 317 319 319 318 322 322 326 329 332 334 334 333 331 330 330 330 330 329 328 327 326 325 323 320 319 317 314 313 314 315 315 315 315 315 315 315 315 317
316 319 316 315 314 315 316 315 315 318 318 318 318 319 318 322 323 324 326 328 328 332 333 332 331 331 330 330 330 329 328 327 327 326 323 322 319 316 314 316 316 316 316 316 317 316 316 315 315
317 313 313 312 313 313 315 314 315 316 318 316 317 318 317 319 321 321 322 326 326 328 329 331 332 332 331 330 330 329 329 328 328 327 325 324 322 317 315 317 318 317 317 318 318 317 316 315 315
314 313 311 311 311 312 313 314 315 315 315 315 315 315 317 318 320 322 326 324 325 325 325 327 329 331 332 331 331 330 329 329 328 328 327 325 324 320 316 318 318 318 318 318 318 318 317 316 316
312 311 311 311 311 311 312 311 311 312 313 313 313 314 315 317 319 323 324 322 322 323 324 325 326 327 328 331 331 330 330 329 329 328 328 327 325 323 318 318 319 319 319 319 319 319 318 317 317
311 312 312 312 312 312 311 313 313 312 311 311 311 312 314 315 318 319 319 320 321 321 322 323 324 326 327 327 330 331 330 330 329 329 328 328 327 324 320 319 320 320 320 320 319 319 319 318 318
312 313 314 311 312 311 312 315 311 309 311 311 311 311 313 314 315 316 319 321 322 323 322 323 324 326 327 327 326 326 330 327 327 328 329 328 327 326 322 320 321 321 320 320 319 319 319 319 318
313 314 313 311 311 312 312 314 311 311 312 313 312 311 311 311 312 314 315 317 319 320 322 322 324 326 326 328 328 328 328 328 327 327 326 328 328 327 324 322 321 321 320 320 320 319 319 318 318
314 312 311 313 311 311 313 314 314 312 311 313 314 313 313 313 314 313 313 314 315 317 319 321 322 324 327 329 330 330 330 330 329 328 328 327 327 327 326 325 324 321 320 320 320 319 319 318 318
312 311 312 310 310 313 314 314 314 314 312 313 314 314 314 314 313 314 313 313 313 313 314 317 320 319 325 329 331 332 331 332 331 330 329 329 327 328 327 326 324 323 322 321 320 319 319 319 319
311 311 311 310 310 312 312 313 314 313 313 314 314 313 312 312 311 312 312 312 312 312 312 313 316 319 321 324 325 330 331 332 331 331 330 330 328 328 328 328 327 325 324 324 323 323 321 320 320
310 311 311 311 310 308 310 313 312 310 308 309 309 309 309 310 311 313 313 312 312 313 312 311 312 314 319 321 325 333 331 332 333 329 330 330 328 329 328 328 328 328 326 325 325 324 324 324 321
311 309 310 310 312 311 309 312 313 311 311 309 309 309 310 312 313 314 314 313 311 311 312 312 312 311 312 318 325 331 330 331 333 332 332 331 327 328 328 328 329 329 329 327 327 326 325 322 322
311 308 310 310 312 312 311 312 312 308 312 311 309 309 309 311 312 313 314 315 314 314 313 312 311 313 311 312 317 326 333 333 330 331 329 328 329 327 327 328 327 327 328 326 327 327 326 326 324
308 310 310 310 311 312 312 311 312 312 311 309 308 311 310 311 312 312 313 313 315 315 315 314 313 313 312 311 313 317 326 330 327 327 327 327 327 326 327 326 328 329 329 328 328 328 328 326 325
310 312 312 313 313 311 308 310 312 310 308 308 310 311 309 310 311 312 313 313 313 314 315 315 315 313 311 311 312 318 328 326 326 326 326 326 326 326 326 326 326 326 328 328 328 327 326 327 325
311 312 314 316 313 312 307 312 312 308 307 307 310 309 309 310 311 312 313 313 314 314 314 314 314 316 315 314 313 313 315 322 324 325 325 325 325 325 325 325 325 326 327 327 326 326 325 324 322
311 311 310 309 303 313 312 311 311 308 311 310 309 309 309 309 310 311 311 312 312 313 313 313 313 314 313 314 317 318 319 321 324 325 323 324 323 323 323 324 325 324 324 323 323 323 322 321 320
310 310 310 310 316 314 310 310 312 311 312 310 309 309 307 308 309 310 311 312 312 313 313 312 312 313 313 313 313 313 313 316 319 322 324 321 322 322 322 322 323 322 321 321 322 321 320 318 318
309 310 310 310 313 317 313 311 310 313 313 312 310 309 308 309 310 310 311 312 313 314 314 314 314 314 313 312 311 311 312 312 312 313 313 315 317 318 319 320 319 319 318 318 318 318 318 317 317
310 311 311 312 312 310 311 311 307 309 312 311 310 307 308 309 309 310 311 312 313 313 313 314 314 314 313 312 311 310 310 311 311 311 311 312 313 314 314 314 315 315 316 315 315 314 313 313 313
Wind_Speed
4 3 3 1 4 2 4 4 0 7 7 3 10 3 2 2 1 3 6 19 19 19 17 13 10 9 8 8 9 10 11 10 7 9 11 15 16 16 19 17 14 14 17 16 16 15 14 12 11
5 5 3 1 4 5 5 4 6 7 7 9 7 5 2 3 1 1 13 18 21 18 17 13 11 9 8 8 9 9 11 11 9 9 11 14 15 15 17 15 12 14 16 16 16 15 14 13 11
7 6 3 2 2 4 5 6 8 6 10 6 5 2 1 2 2 9 14 20 21 18 16 14 11 10 9 8 8 9 10 12 8 6 11 11 12 13 16 16 14 15 16 16 16 16 14 13 13
7 4 2 4 4 2 3 8 8 12 3 3 3 4 2 3 6 9 19 21 20 18 16 14 12 11 9 9 8 8 10 13 7 3 10 10 10 10 14 17 12 16 12 16 17 15 15 14 15
8 3 3 3 3 2 1 6 12 11 7 6 4 3 3 3 9 11 19 23 20 17 16 15 13 11 10 9 8 8 10 11 8 3 9 9 9 9 12 14 13 14 12 13 17 16 15 15 17
3 2 5 7 4 2 2 8 9 7 5 5 5 5 3 7 10 13 18 20 19 17 17 16 14 12 11 9 8 8 9 10 9 3 6 7 8 8 11 11 13 11 11 13 14 15 14 15 15
3 3 5 6 7 4 5 10 8 7 6 6 3 4 3 11 14 14 19 18 19 18 18 17 15 14 12 10 9 9 9 9 7 3 4 6 6 7 9 8 9 11 12 12 12 12 11 11 11
3 2 5 3 8 5 9 10 3 6 5 5 5 3 3 13 16 17 20 18 19 19 18 18 17 15 14 12 11 9 9 8 6 4 3 4 4 6 7 6 8 9 10 10 9 9 9 8 7
4 2 5 6 7 6 9 7 7 6 4 5 7 2 3 16 17 20 23 21 21 21 21 19 18 17 15 14 13 11 10 8 6 5 4 3 4 5 7 7 7 7 8 8 7 7 7 6 5
2 2 6 4 6 6 11 7 11 7 8 5 6 9 6 17 18 21 26 26 25 24 24 22 20 19 17 16 14 13 11 10 8 6 6 5 4 5 6 7 6 6 7 8 7 6 5 5 5
3 3 4 5 3 5 10 5 6 6 6 10 12 12 12 17 20 21 23 25 25 24 24 24 23 21 20 19 17 16 14 13 11 9 8 6 6 6 8 7 7 7 7 7 6 5 4 4 4
4 2 3 4 4 5 10 6 5 8 1 4 11 10 15 17 20 21 21 23 23 25 23 23 24 24 23 21 19 18 16 15 13 11 10 8 7 7 9 8 8 8 7 6 4 3 3 3 4
3 5 4 5 5 6 9 3 2 8 8 8 5 10 15 18 19 20 19 21 22 23 22 23 24 24 25 24 23 21 19 17 15 14 12 11 9 9 10 10 9 9 7 6 4 3 3 2 4
5 6 7 4 3 3 2 3 2 3 8 13 15 12 13 17 19 19 22 21 22 22 21 21 22 23 24 25 25 24 22 20 19 17 15 13 12 11 12 12 11 10 9 7 6 5 5 4 5
9 4 4 3 3 2 3 5 6 6 8 8 9 14 15 15 20 22 20 22 21 22 22 22 22 22 23 22 25 24 23 23 22 20 19 17 15 14 14 14 13 12 11 10 9 8 7 7 8
4 3 5 2 3 1 5 11 3 5 5 13 11 9 16 17 18 20 22 23 23 24 24 24 24 25 24 24 22 22 22 20 20 25 23 21 19 17 17 17 16 15 14 13 11 10 11 12 12
0 5 4 2 2 2 4 5 4 4 2 4 8 11 15 15 17 20 21 24 25 25 26 27 27 28 27 27 26 24 23 23 21 20 23 24 23 21 20 20 20 18 17 17 16 15 15 16 17
6 4 2 4 3 1 3 13 6 6 8 9 9 9 11 11 12 13 15 19 23 26 28 30 30 30 30 31 31 30 28 27 27 24 23 21 24 25 24 23 22 23 22 22 22 19 21 20 19
4 4 5 2 2 3 8 13 12 12 12 13 15 17 17 17 15 16 16 19 24 26 28 33 34 32 34 35 37 36 34 32 31 29 27 25 25 26 28 26 26 27 26 27 26 26 24 25 25
5 5 3 2 1 3 1 12 13 11 11 16 15 13 14 17 15 18 19 21 25 30 31 32 36 35 36 37 36 38 36 35 33 32 33 32 26 29 26 30 30 30 30 32 31 32 31 31 31
3 7 4 2 3 2 5 8 6 2 8 10 9 9 10 12 11 10 12 16 21 21 28 33 34 35 36 37 35 36 35 36 37 35 34 34 29 30 31 31 31 34 35 35 36 36 37 38 36
8 8 5 6 2 4 3 6 4 3 9 4 3 3 4 4 3 1 1 5 11 18 21 24 28 30 34 33 35 36 38 37 39 37 36 33 29 31 32 34 34 39 37 40 40 42 43 43 42
3 5 4 3 3 1 4 5 3 1 7 6 5 3 4 5 6 7 8 7 4 4 8 14 19 20 26 30 32 33 35 36 35 33 31 33 29 32 30 36 33 35 37 40 46 48 47 48 49
15 8 6 4 1 5 8 6 5 6 5 5 2 2 6 8 8 9 9 9 9 7 4 3 7 11 16 22 25 28 32 33 34 34 33 32 31 29 31 29 32 37 38 38 41 45 51 55 53
3 13 3 3 4 6 1 4 9 4 4 3 3 5 7 11 11 11 11 11 10 9 8 6 4 5 9 15 19 21 25 26 28 31 32 31 31 31 30 29 30 32 36 37 40 44 46 47 52
11 9 6 7 5 2 2 8 4 1 1 4 7 7 11 13 13 13 12 12 11 11 10 9 8 6 5 7 12 17 21 24 28 28 28 30 32 30 27 28 29 29 34 38 40 41 48 46 48
7 8 3 7 1 1 5 5 9 6 5 9 9 10 11 14 14 15 14 14 13 12 10 9 8 6 5 3 4 9 14 18 22 25 26 26 26 26 24 24 27 28 28 32 31 35 40 41 42
7 12 4 4 6 6 7 6 10 7 12 10 11 13 11 15 15 15 14 13 13 12 11 10 9 7 6 3 1 3 6 10 13 17 19 21 22 22 23 23 25 27 24 20 25 27 30 32 33
6 7 4 4 4 6 4 7 4 13 17 17 17 15 15 17 15 14 14 12 10 9 8 7 6 6 5 4 3 4 5 6 8 10 13 16 19 21 22 23 25 23 23 24 26 27 29 30 31
9 14 17 8 9 4 2 9 0 5 19 22 20 17 17 17 16 14 13 11 8 6 5 3 2 2 2 3 3 3 2 3 5 7 9 10 11 13 15 17 18 21 24 27 29 30 31 32 33
Wind_Direction
238 215 203 222 229 237 130 137 120 138 154 140 146 179 184 38 302 20 161 167 169 167 165 163 150 142 128 114 110 109 115 115 95 76 82 96 109 102 98 99 100 92 97 101 107 108 112 113 114
207 188 181 205 235 183 135 146 173 127 127 132 139 139 171 99 145 176 153 164 164 166 165 163 153 145 131 117 111 111 115 121 92 84 80 93 105 109 108 103 105 95 92 96 103 106 105 104 104
191 181 194 215 220 164 137 176 145 118 129 155 152 179 141 102 158 153 166 165 163 169 167 162 157 150 140 127 118 113 112 117 109 80 72 83 98 106 103 105 91 88 95 91 92 96 99 100 101
171 154 70 243 163 98 69 152 151 143 153 174 153 149 117 157 138 160 166 167 163 170 171 167 163 157 148 138 130 122 122 119 133 81 68 76 94 104 98 103 101 89 88 97 95 93 94 98 102
177 128 196 162 130 107 131 148 161 163 155 163 168 140 113 187 163 159 168 170 170 170 172 171 167 163 156 150 143 132 132 129 138 119 61 77 94 99 94 112 118 117 112 98 102 96 97 100 102
165 151 193 172 135 129 141 164 161 166 161 152 180 148 128 179 172 166 170 174 174 177 174 176 171 170 165 162 155 145 142 131 155 149 77 78 95 99 96 109 123 119 110 107 110 111 113 113 107
213 207 155 150 137 151 150 161 183 173 172 184 173 162 154 174 172 171 173 178 180 184 181 181 179 175 172 171 166 159 155 150 165 150 97 78 94 99 99 108 119 112 104 107 109 111 118 110 107
187 127 140 163 168 134 148 164 182 175 174 177 169 179 158 185 176 171 175 178 188 191 190 188 187 183 181 180 176 172 170 170 169 166 126 97 104 107 110 117 120 120 113 112 108 108 114 113 105
180 175 166 164 170 142 160 178 159 171 143 181 194 147 179 179 179 177 182 186 191 196 199 197 195 194 190 191 187 183 184 180 181 178 160 151 146 136 133 132 131 129 123 117 113 110 111 114 117
205 194 176 174 166 155 173 187 160 169 167 201 207 210 188 187 187 190 190 191 195 199 201 203 203 203 201 200 199 197 195 195 196 194 191 188 176 163 160 150 147 139 130 129 123 123 127 137 149
155 208 160 183 164 143 164 191 171 179 196 203 212 205 206 193 195 201 204 204 201 203 208 208 208 210 209 209 208 208 206 205 204 204 205 205 201 187 182 172 163 150 139 139 134 132 141 150 156
166 99 128 139 166 146 158 152 187 206 225 171 210 197 215 208 207 212 211 211 209 207 210 214 214 215 215 216 216 217 218 215 213 213 213 213 215 206 197 190 179 170 163 161 155 148 152 150 150
152 142 111 134 143 122 144 153 215 242 232 238 208 208 218 219 220 219 218 218 218 215 211 215 220 220 220 220 220 221 222 223 222 219 219 218 218 217 208 203 196 190 188 185 192 187 188 173 163
137 130 128 137 141 112 163 142 210 216 233 247 243 231 221 223 224 222 220 222 223 223 218 216 218 222 223 226 226 226 227 228 228 225 223 222 221 220 215 211 209 207 206 210 208 213 214 211 198
128 104 130 141 156 105 122 247 224 242 235 257 256 230 226 226 226 229 235 232 232 230 226 222 223 223 225 227 228 230 229 233 235 231 227 224 222 221 216 215 215 217 218 220 227 229 226 225 221
112 129 185 112 179 137 188 246 212 258 246 247 245 231 229 228 232 231 232 237 236 238 234 229 227 229 230 230 230 230 230 233 236 235 230 227 225 222 219 216 217 218 219 224 231 236 240 239 236
165 182 202 173 234 149 218 249 148 192 145 268 258 243 240 238 239 239 239 239 237 239 241 237 233 233 234 234 235 234 231 236 238 239 236 229 228 226 225 223 225 224 231 236 241 244 250 244 244
167 173 190 210 174 204 206 253 236 221 267 259 263 251 238 234 237 243 242 245 243 243 242 242 240 238 237 239 240 238 235 235 238 240 243 241 233 229 229 230 235 236 238 243 244 241 247 247 249
142 145 176 130 85 217 234 264 266 269 271 252 248 249 253 259 257 255 248 249 247 242 239 239 239 236 236 235 239 240 239 237 238 240 243 245 241 236 232 236 237 239 243 245 250 250 251 249 257
153 144 166 80 45 240 293 276 271 253 253 255 254 247 259 265 274 270 261 251 246 244 238 236 238 236 237 238 240 244 246 243 247 242 244 243 245 241 244 242 241 243 245 246 248 253 252 253 249
176 196 177 194 178 132 307 268 276 242 249 261 260 258 252 251 259 261 254 247 236 239 236 235 237 237 236 237 238 238 246 249 243 253 248 244 250 243 244 249 248 246 247 248 250 252 251 253 251
205 203 167 156 152 260 0 287 277 254 277 239 191 145 158 162 159 114 217 242 236 235 236 237 236 238 235 233 230 232 234 236 241 247 249 255 250 251 247 248 256 257 251 249 254 254 254 251 251
206 145 119 87 118 319 187 255 252 348 263 186 166 152 163 147 130 102 91 89 105 201 233 235 231 236 234 230 232 233 235 239 242 247 253 255 254 249 252 255 252 261 259 258 256 256 257 255 253
147 108 74 78 107 251 211 227 228 214 233 149 138 155 156 143 130 112 96 88 84 82 95 185 221 231 230 226 227 231 237 237 241 246 252 253 259 258 255 256 263 260 264 267 268 267 263 262 256
173 157 124 200 203 248 68 209 258 222 198 182 156 150 149 139 130 120 111 103 99 96 92 95 125 188 211 219 223 224 230 233 243 247 251 255 258 260 264 265 265 266 265 272 276 273 276 271 268
180 189 172 193 198 200 92 229 248 116 267 207 141 144 138 132 130 121 111 102 96 91 91 93 97 110 148 195 215 225 229 230 236 243 247 251 254 259 264 264 267 268 275 275 278 273 277 278 272
178 213 128 102 49 229 208 250 264 215 168 151 139 142 135 134 130 122 113 104 93 84 82 80 82 87 100 142 199 217 225 229 231 237 241 247 255 258 258 260 266 269 274 272 274 276 279 281 281
201 143 157 219 192 231 219 254 235 191 183 163 157 153 145 135 130 122 113 102 93 86 76 71 65 58 50 42 347 238 247 250 248 245 243 245 249 253 256 257 262 266 265 271 273 272 280 278 281
155 185 194 192 202 218 238 244 225 208 180 170 164 160 153 141 133 127 120 114 104 98 94 81 72 57 38 14 346 307 282 271 266 263 259 255 253 253 256 257 261 266 267 273 272 273 275 275 276
218 211 187 198 198 252 304 252 200 208 167 166 166 166 160 153 148 141 135 131 130 123 110 101 75 54 16 357 345 339 320 293 278 275 272 267 264 261 262 265 267 269 271 272 273 274 274 275 275